CDT,Max TemperatureF,Mean TemperatureF,Min TemperatureF,Max Dew PointF,MeanDew PointF,Min DewpointF,Max Humidity, Mean Humidity, Min Humidity, Max Sea Level PressureIn, Mean Sea Level PressureIn, Min Sea Level PressureIn, Max VisibilityMiles, Mean VisibilityMiles, Min VisibilityMiles, Max Wind SpeedMPH, Mean Wind SpeedMPH, Max Gust SpeedMPH,PrecipitationIn, CloudCover, Events, WindDirDegrees
2013-9-1,100,86,71,82,67,55,58,56,53,29.95,29.89,29.83,8,5,0,10,1,,0.00,0,,259
2013-9-2,89,81,73,72,61,55,58,55,53,30.01,29.92,29.87,9,6,1,9,2,,0.03,1,Rain,136
2013-9-3,96,81,66,77,63,52,61,56,53,30.02,29.96,29.92,10,7,2,9,2,,0.00,0,,8
2013-9-4,95,78,62,77,60,45,58,55,52,30.12,30.06,30.00,10,7,0,8,1,,0.00,0,,359
2013-9-5,96,79,62,79,61,46,61,55,52,30.17,30.12,30.08,10,7,0,6,1,,0.00,0,,46
2013-9-6,96,78,60,79,60,45,60,55,52,30.16,30.10,30.04,10,6,0,6,0,,0.00,0,,85
2013-9-7,98,81,64,81,63,48,60,55,52,30.10,30.05,29.99,8,5,0,7,1,,0.00,0,,174
2013-9-8,100,83,66,82,64,48,60,56,52,30.04,29.99,29.94,8,5,0,7,0,,0.00,0,,155
2013-9-9,100,84,69,82,65,52,58,55,53,30.08,30.03,29.98,9,6,1,7,1,,0.00,0,,227
2013-9-10,100,86,73,81,65,57,58,55,53,30.17,30.12,30.06,8,5,2,9,1,,0.01,0,,152
2013-9-11,98,83,68,81,64,52,61,55,53,30.20,30.14,30.08,10,6,0,8,1,,0.00,0,,152
2013-9-12,100,83,66,82,64,48,60,56,52,30.10,30.03,29.94,10,7,0,6,1,,0.00,0,,187
2013-9-13,91,80,66,73,61,50,61,56,53,29.99,29.95,29.89,10,7,2,10,4,16,0.02,1,Rain,21
2013-9-14,86,70,53,68,52,39,61,55,52,30.07,30.02,29.99,10,10,5,9,5,,0.00,0,,26
2013-9-15,93,70,48,75,53,34,60,56,53,30.13,30.08,30.06,10,8,1,7,1,,0.00,0,,231
2013-9-16,96,76,57,79,58,41,60,56,52,30.16,30.11,30.06,10,8,4,9,1,,0.00,0,,25
2013-9-17,96,78,60,79,60,45,60,55,52,30.17,30.10,30.04,10,8,2,8,2,,0.00,0,,89
2013-9-18,91,80,69,73,61,54,58,56,53,30.17,30.11,30.06,9,7,3,8,4,,0.00,3,,161
2013-9-19,95,80,64,77,61,48,60,56,52,30.14,30.08,30.01,10,7,2,12,3,,0.00,0,,154
2013-9-20,93,78,64,75,60,48,59,56,52,30.03,29.95,29.84,10,6,1,13,3,18,1.13,2,Rain,179
2013-9-21,78,69,60,63,55,45,57,56,52,29.88,29.83,29.76,10,6,0,17,5,25,3.16,4,Rain,22
2013-9-22,84,68,51,66,50,36,60,55,52,29.93,29.89,29.84,10,7,0,10,3,16,0.00,0,,36
2013-9-23,89,70,51,72,53,36,60,55,52,29.96,29.92,29.89,10,7,0,9,2,,0.00,0,,103
2013-9-24,75,70,64,57,55,48,57,55,52,29.95,29.89,29.81,10,5,0,8,2,,0.11,7,Rain,137
2013-9-25,91,81,71,73,61,55,58,56,53,29.86,29.82,29.78,10,6,1,6,1,,0.01,5,,164
2013-9-26,82,73,64,64,55,46,61,55,52,30.00,29.94,29.85,9,5,0,8,1,,0.00,5,,91
2013-9-27,89,74,59,72,55,43,60,55,52,30.12,30.06,30.01,10,6,0,8,1,,0.00,1,,120
2013-9-28,86,70,55,70,53,39,60,56,52,30.18,30.11,30.06,10,7,0,9,2,16,0.00,0,,144
2013-9-29,78,68,57,61,52,41,61,56,52,30.11,30.06,30.00,10,9,2,10,3,,0.00,1,,167
2013-9-30,78,70,62,61,52,46,60,55,52,30.05,30.01,29.97,10,7,0,10,2,,0.93,5,Rain,147